CZ-2C DEB, 40288

Orbit data source: Space-Track

CZ-2C DEB, 40288 is space debris in SSO originally from a launch on Mon, 27 Oct 2014 UTC launched from the Jiuquan Satellite Launch Center, China (JSC). Debris objects in space refer to the collection of defunct objects orbiting the Earth. Examples of debris include non-operational satellites, rocket bodies, and fragments generated from explosions, collisions, or faulty payload assembly.

Loading next visibility...
CZ-2C DEB details
Identifier
40288, 2014-066C
Orbit
SSO
Last TLE update1 day ago
Origin
Flag of CNCASC (CN / PRC)
ManufacturerCALT
MissionSpacecraft
Bus & MotorUnknown
Mass1 kg wet, 1 kg dry
Launch date (UTC)
2014-10-27 (10 years ago)
Launch vehicleUnknown
Launch site
Jiuquan Satellite Launch Center, China (JSC)
Object type
Payload
Rocket body
Debris
Shape & HBRCone, 0.2 m
Radar Cross Section0.025 m², Small (<0.1 m²)

Expand to show TLE details & history

TLE from 1 day ago
0 CZ-2C DEB
1 40288U 14066C   24347.89508646  .00002594  00000-0  91199-3 0  9997
2 40288  97.9142 144.5961 0168390  54.4359 307.2389 14.27993882525426
Epoch: 2024-12-12T21:28Z
Definitive object data (Epoch: 2024-12-12T21:28:55.47Z)
Latitude-0.00008°
Longitude100.29613°
Altitude729.561 km
Speed7.528 km/s
True Right ascension09h 38m 23s
True Declination0° 00' 00"
Sunlit
Object was in daylight at TLE epoch
Visualization TLE readout
Latitude-24.72495°
Longitude105.08636°
Altitude775.355 km
Speed7.482 km/s
Apparent Right ascension11h 44m 26s
Apparent Declination-35° 53' 29"
Sunlit
Object is in daylight
Visualization observer readout
Local Sidereal Time02:10:59
Azimuth93.848° ESE
Elevation-61.018°
Doppler factor1
Orbital elements
Apogee altitude916.352 km
Perigee altitude674.757 km
Semi-major axis7,173.691 km
Eccentricity0.016839
Inclination97.9142°
RAAN144.5961°
Arg. of periapsis54.4359°
True anomaly305.68308°
Mean anomaly307.2389°
Eccentric anomaly306.46297°
Mean motion3.57215 °/min
BSTAR0.00091199
Orbital period100.78 mins
Loading maneuver chart data...
Loading historical data...
Loading historical data...
Loading historical data...
Loading historical data...
Loading historical data...
Loading historical data...
Loading historical data...
Other satellites on launch #66 in the year 2014 (2014-10-27 UTC)

CZ-2C DEB Visibility forecast

Observer location: undefined°, undefined

Span
Click to sort rows by Start time (UTC) header in descending order
Start Az.
Max El. time (UTC)
Max El. Az.
Max El.
End time (UTC)
End Az.
9 mins2024-12-14 10:35:13.706Z163.152° S2024-12-14 10:39:13.706Z143.486° SSE43.471°2024-12-14 10:44:13.706Z349.307° N
8 mins2024-12-14 22:50:13.706Z40.306° NE2024-12-14 22:53:13.706Z89.252° E29.906°2024-12-14 22:58:13.706Z161.945° S
7 mins2024-12-15 00:30:13.706Z337.411° NNW2024-12-15 00:33:13.706Z289.656° WNW24.665°2024-12-15 00:37:13.706Z237.307° WSW
|